| time (UTC) | temp C | wind direction | speed KPH | gust KPH | rain 1hr cm | rain 24hr cm | rain mn cm | humidity % | barometer mb |
| 20260506050904 | 10 | 1 | 4.8 | 12.9 | 0.00 | 0.00 | 0.00 | 86 | 1007.6 |
| 20260506050404 | 10 | 7 | 3.2 | 25.7 | 0.00 | 0.00 | 0.00 | 86 | 1007.6 |
| 20260506040904 | 10 | 13 | 12.9 | 20.9 | 0.00 | 0.00 | 0.00 | 85 | 1007.7 |
| 20260506040403 | 10 | 355 | 8.0 | 22.5 | 0.00 | 0.00 | 0.00 | 85 | 1007.8 |
| 20260506030403 | 10 | 355 | 9.7 | 20.9 | 0.00 | 0.00 | 0.00 | 84 | 1008.0 |
| 20260506020905 | 10 | 344 | 8.0 | 14.5 | 0.00 | 0.00 | 0.00 | 84 | 1008.1 |
| 20260506020405 | 10 | 13 | 4.8 | 20.9 | 0.00 | 0.00 | 0.00 | 84 | 1008.1 |
| 20260506010405 | 10 | 339 | 14.5 | 22.5 | 0.00 | 0.00 | 0.00 | 84 | 1008.3 |
| 20260506000905 | 10 | 10 | 9.7 | 14.5 | 0.00 | 0.00 | 0.00 | 85 | 1008.9 |
| 20260505230905 | 10 | 346 | 9.7 | 16.1 | 0.00 | 0.00 | 0.00 | 84 | 1009.4 |
| 20260505214404 | 10 | 10 | 11.3 | 22.5 | 0.00 | 0.00 | 0.00 | 81 | 1009.7 |
| 20260505200904 | 10 | 346 | 9.7 | 19.3 | 0.00 | 0.00 | 0.00 | 78 | 1009.9 |
| 20260505190904 | 11 | 351 | 9.7 | 19.3 | 0.00 | 0.00 | 0.00 | 77 | 1009.4 |
| 20260505160403 | 13 | 7 | 9.7 | 20.9 | 0.00 | 0.00 | 0.00 | 73 | 1009.3 |
| 20260505150403 | 13 | 10 | 9.7 | 22.5 | 0.00 | 0.00 | 0.00 | 71 | 1009.3 |
| 20260505140403 | 13 | 349 | 9.7 | 27.4 | 0.00 | 0.00 | 0.00 | 70 | 1009.6 |
| 20260505120902 | 14 | 39 | 8.0 | 16.1 | 0.00 | 0.00 | 0.00 | 69 | 1010.3 |
| 20260505120402 | 14 | 357 | 16.1 | 33.8 | 0.00 | 0.00 | 0.00 | 69 | 1010.4 |
| 20260505080404 | 12 | 348 | 12.9 | 22.5 | 0.00 | 0.00 | 0.00 | 79 | 1010.9 |
| 20260505070905 | 10 | 353 | 8.0 | 20.9 | 0.00 | 0.00 | 0.00 | 86 | 1011.2 |